N8767 LOWS-EFKT

Flight info

Callsign N8767
Flight time 3h 28m
Altitude 38000
Route INROM DCT TIVAP DCT BUDEX DCT MAREM/N0449F390 DCT BEBKU DCT OBANI/N0450F380 M725 IDOBA/N0450F390 DCT ALUKA DCT DOSAL/N0452F380 L996 GOSOT/N0459F390 DCT DEREX/K0869F390 DCT RATLA/N0471F400 DCT ELPOP Y75 EVIMI
Aircraft B737/M-SDE2E3FGHIRWXY/LB1

Departure

Time 2026-04-26 08:28
Airport Salzburg Airport (LOWS)

Arrival

Time 2026-04-26 11:57
Airport Kittilä International Airport (EFKT)
Time Latitude Longitude Altitude Speed Heading
2026-04-26 07:59 47.79232 13.00088 1419 ft 0 kts 101°
2026-04-26 08:18 47.79234 13.00069 1419 ft 4 kts 102°
2026-04-26 08:18 47.79240 13.00030 1419 ft 4 kts 105°
2026-04-26 08:19 47.79248 12.99993 1419 ft 4 kts 118°
2026-04-26 08:19 47.79264 12.99962 1419 ft 4 kts 146°
2026-04-26 08:19 47.79272 12.99954 1419 ft 1 kts 156°
2026-04-26 08:22 47.79268 12.99957 1419 ft 3 kts 158°
2026-04-26 08:23 47.79226 12.99984 1419 ft 9 kts 156°
2026-04-26 08:23 47.79151 13.00032 1419 ft 14 kts 156°
2026-04-26 08:23 47.79059 13.00091 1419 ft 15 kts 156°
2026-04-26 08:23 47.78968 13.00164 1419 ft 14 kts 126°
2026-04-26 08:24 47.78954 13.00289 1419 ft 11 kts 88°
2026-04-26 08:24 47.79001 13.00335 1419 ft 9 kts 344°
2026-04-26 08:24 47.79063 13.00297 1419 ft 10 kts 337°
2026-04-26 08:24 47.79144 13.00246 1419 ft 16 kts 336°
2026-04-26 08:25 47.79254 13.00176 1419 ft 19 kts 337°
2026-04-26 08:25 47.79384 13.00097 1419 ft 21 kts 336°
2026-04-26 08:25 47.79519 13.00011 1419 ft 21 kts 336°
2026-04-26 08:25 47.79650 12.99926 1419 ft 20 kts 337°
2026-04-26 08:26 47.79778 12.99846 1419 ft 20 kts 337°
2026-04-26 08:26 47.79902 12.99768 1419 ft 19 kts 336°
2026-04-26 08:26 47.80022 12.99692 1419 ft 18 kts 337°
2026-04-26 08:26 47.80137 12.99619 1419 ft 17 kts 337°
2026-04-26 08:27 47.80231 12.99600 1419 ft 13 kts 20°
2026-04-26 08:27 47.80275 12.99702 1420 ft 12 kts 79°
2026-04-26 08:27 47.80251 12.99810 1419 ft 12 kts 149°
2026-04-26 08:27 47.80145 12.99877 1420 ft 33 kts 158°
2026-04-26 08:28 47.79709 13.00155 1420 ft 107 kts 157°
2026-04-26 08:28 47.78811 13.00740 1422 ft 173 kts 155°
2026-04-26 08:28 47.77578 13.01500 1743 ft 207 kts 157°
2026-04-26 08:28 47.76156 13.02347 2212 ft 230 kts 156°
2026-04-26 08:29 47.74766 13.03614 2591 ft 242 kts 131°
2026-04-26 08:29 47.74026 13.05792 3398 ft 240 kts 96°
2026-04-26 08:29 47.74326 13.08215 4053 ft 248 kts 55°
2026-04-26 08:29 47.75650 13.09851 4731 ft 257 kts 17°
2026-04-26 08:30 47.77402 13.09929 5643 ft 252 kts 342°
2026-04-26 08:30 47.78895 13.08591 6479 ft 258 kts 314°
2026-04-26 08:30 47.79926 13.06404 7425 ft 258 kts 295°
2026-04-26 08:30 47.80593 13.03997 8530 ft 256 kts 297°
2026-04-26 08:31 47.81857 13.02090 9339 ft 269 kts 331°
2026-04-26 08:31 47.83694 13.01518 9790 ft 277 kts
2026-04-26 08:31 47.85592 13.02109 10438 ft 288 kts 13°
2026-04-26 08:31 47.87484 13.03546 10669 ft 324 kts 31°
2026-04-26 08:32 47.89379 13.05639 10902 ft 353 kts 33°
2026-04-26 08:32 47.91378 13.07961 11342 ft 371 kts 34°
2026-04-26 08:32 47.93422 13.10332 12202 ft 374 kts 33°
2026-04-26 08:32 47.95496 13.12692 13107 ft 375 kts 32°
2026-04-26 08:33 47.97593 13.15032 13998 ft 378 kts 32°
2026-04-26 08:33 47.99714 13.17377 14800 ft 382 kts 32°
2026-04-26 08:33 48.01825 13.19835 15640 ft 389 kts 37°
2026-04-26 08:33 48.03737 13.22728 16538 ft 393 kts 42°
2026-04-26 08:34 48.05574 13.25778 17365 ft 396 kts 44°
2026-04-26 08:34 48.07406 13.28891 18093 ft 400 kts 44°
2026-04-26 08:34 48.09255 13.32034 18791 ft 404 kts 44°
2026-04-26 08:34 48.11131 13.35202 19460 ft 409 kts 44°
2026-04-26 08:35 48.13039 13.38399 20094 ft 415 kts 43°
2026-04-26 08:35 48.14976 13.41630 20740 ft 419 kts 44°
2026-04-26 08:35 48.16938 13.44892 21367 ft 424 kts 44°
2026-04-26 08:35 48.18923 13.48187 21961 ft 429 kts 44°
2026-04-26 08:36 48.20929 13.51524 22552 ft 433 kts 44°
2026-04-26 08:36 48.22952 13.54888 23108 ft 437 kts 44°
2026-04-26 08:36 48.24996 13.58293 23606 ft 441 kts 44°
2026-04-26 08:36 48.27060 13.61735 24091 ft 446 kts 44°
2026-04-26 08:37 48.29142 13.65211 24579 ft 449 kts 44°
2026-04-26 08:37 48.31233 13.68715 25101 ft 451 kts 44°
2026-04-26 08:37 48.33327 13.72229 25596 ft 454 kts 44°
2026-04-26 08:37 48.35438 13.75770 26039 ft 457 kts 44°
2026-04-26 08:38 48.37566 13.79340 26459 ft 460 kts 44°
2026-04-26 08:38 48.39712 13.82945 26894 ft 462 kts 44°
2026-04-26 08:38 48.41859 13.86558 27330 ft 464 kts 44°
2026-04-26 08:38 48.44017 13.90196 27746 ft 467 kts 45°
2026-04-26 08:39 48.46182 13.93852 28137 ft 469 kts 45°
2026-04-26 08:39 48.48348 13.97514 28580 ft 469 kts 45°
2026-04-26 08:39 48.50509 14.01175 29199 ft 464 kts 44°
2026-04-26 08:39 48.52642 14.04796 29819 ft 460 kts 44°
2026-04-26 08:40 48.54766 14.08404 30304 ft 459 kts 44°
2026-04-26 08:40 48.56883 14.12002 30707 ft 460 kts 45°
2026-04-26 08:40 48.59008 14.15621 31074 ft 461 kts 44°
2026-04-26 08:40 48.61134 14.19246 31483 ft 460 kts 45°
2026-04-26 08:41 48.63254 14.22865 31923 ft 459 kts 44°
2026-04-26 08:41 48.65363 14.26468 32317 ft 458 kts 44°
2026-04-26 08:41 48.67472 14.30079 32673 ft 458 kts 44°
2026-04-26 08:41 48.69608 14.33639 33027 ft 455 kts 39°
2026-04-26 08:42 48.72176 14.36314 33318 ft 446 kts 20°
2026-04-26 08:42 48.75090 14.37735 33737 ft 436 kts
2026-04-26 08:42 48.78086 14.38101 34082 ft 431 kts 354°
2026-04-26 08:42 48.81042 14.37478 34411 ft 428 kts 348°
2026-04-26 08:43 48.83966 14.36624 34719 ft 428 kts 347°
2026-04-26 08:43 48.86883 14.35754 35068 ft 426 kts 347°
2026-04-26 08:43 48.89796 14.34932 35379 ft 426 kts 347°
2026-04-26 08:43 48.92714 14.34145 35659 ft 426 kts 348°
2026-04-26 08:44 48.95615 14.33330 35972 ft 423 kts 345°
2026-04-26 08:44 48.98479 14.32319 36298 ft 421 kts 344°
2026-04-26 08:44 49.01319 14.31222 36530 ft 422 kts 343°
2026-04-26 08:44 49.04160 14.30090 36794 ft 421 kts 343°
2026-04-26 08:45 49.06973 14.28968 37178 ft 416 kts 343°
2026-04-26 08:45 49.09766 14.27863 37547 ft 413 kts 343°
2026-04-26 08:45 49.12535 14.26770 37878 ft 410 kts 343°
2026-04-26 08:45 49.15294 14.25686 38106 ft 409 kts 343°
2026-04-26 08:46 49.18057 14.24610 38218 ft 411 kts 343°
2026-04-26 08:46 49.20834 14.23522 38360 ft 412 kts 343°
2026-04-26 08:46 49.23611 14.22436 38578 ft 411 kts 342°
2026-04-26 08:46 49.26385 14.21351 38760 ft 411 kts 342°
2026-04-26 08:47 49.29161 14.20266 38908 ft 412 kts 342°
2026-04-26 08:47 49.31940 14.19181 39056 ft 413 kts 342°
2026-04-26 08:47 49.34682 14.18107 39253 ft 412 kts 342°
2026-04-26 08:47 49.37507 14.16998 39260 ft 416 kts 342°
2026-04-26 08:48 49.43063 14.14817 39276 ft 413 kts 342°
2026-04-26 08:48 49.48616 14.12635 39282 ft 410 kts 342°
2026-04-26 08:49 49.54133 14.10456 39294 ft 409 kts 342°
2026-04-26 08:49 49.59642 14.08275 39292 ft 408 kts 342°
2026-04-26 08:50 49.65145 14.06107 39279 ft 408 kts 342°
2026-04-26 08:50 49.69724 14.04285 39282 ft 409 kts 342°
2026-04-26 08:51 49.77998 14.00979 39292 ft 410 kts 342°
2026-04-26 08:52 49.83533 13.98762 39293 ft 411 kts 342°
2026-04-26 08:52 49.89079 13.96540 39273 ft 411 kts 342°
2026-04-26 08:53 49.94623 13.94315 39285 ft 412 kts 342°
2026-04-26 08:53 50.00174 13.92088 39296 ft 412 kts 342°
2026-04-26 08:54 50.05724 13.89851 39295 ft 412 kts 342°
2026-04-26 08:54 50.11276 13.87604 39284 ft 412 kts 342°
2026-04-26 08:55 50.16832 13.85352 39291 ft 412 kts 342°
2026-04-26 08:55 50.22382 13.83099 39294 ft 412 kts 342°
2026-04-26 08:56 50.27927 13.80839 39281 ft 412 kts 342°
2026-04-26 08:56 50.33465 13.78577 39301 ft 411 kts 342°
2026-04-26 08:57 50.39001 13.76313 39294 ft 411 kts 342°
2026-04-26 08:57 50.44531 13.74044 39289 ft 411 kts 342°
2026-04-26 08:58 50.50048 13.71772 39291 ft 410 kts 342°
2026-04-26 08:58 50.55562 13.69503 39294 ft 409 kts 342°
2026-04-26 08:59 50.61077 13.67226 39293 ft 408 kts 342°
2026-04-26 08:59 50.66563 13.64947 39298 ft 408 kts 342°
2026-04-26 09:00 50.72203 13.63695 39305 ft 414 kts 355°
2026-04-26 09:00 50.77967 13.64813 39298 ft 421 kts
2026-04-26 09:01 50.83693 13.66728 39283 ft 420 kts
2026-04-26 09:01 50.89400 13.68642 39291 ft 419 kts
2026-04-26 09:02 50.95105 13.70511 39297 ft 418 kts
2026-04-26 09:02 51.00794 13.72367 39301 ft 416 kts
2026-04-26 09:03 51.06463 13.74212 39289 ft 415 kts
2026-04-26 09:03 51.12102 13.76045 39292 ft 413 kts
2026-04-26 09:04 51.17723 13.77878 39299 ft 412 kts
2026-04-26 09:04 51.23330 13.79717 39293 ft 411 kts
2026-04-26 09:05 51.28921 13.81554 39304 ft 409 kts
2026-04-26 09:05 51.34490 13.83388 39295 ft 408 kts
2026-04-26 09:06 51.40050 13.85228 39295 ft 407 kts
2026-04-26 09:06 51.45555 13.87054 39294 ft 406 kts
2026-04-26 09:07 51.51083 13.88716 39297 ft 403 kts
2026-04-26 09:07 51.56603 13.90281 39292 ft 402 kts
2026-04-26 09:08 51.62107 13.91865 39296 ft 402 kts
2026-04-26 09:08 51.67607 13.93459 39289 ft 401 kts
2026-04-26 09:09 51.73093 13.95065 39295 ft 400 kts
2026-04-26 09:09 51.78557 13.96667 39294 ft 399 kts
2026-04-26 09:10 51.84021 13.98266 39295 ft 399 kts
2026-04-26 09:10 51.89479 13.99875 39296 ft 399 kts
2026-04-26 09:11 51.94936 14.01481 39296 ft 398 kts
2026-04-26 09:11 52.00396 14.03094 39297 ft 399 kts
2026-04-26 09:12 52.05854 14.04711 39293 ft 399 kts
2026-04-26 09:12 52.11325 14.06336 39297 ft 400 kts
2026-04-26 09:13 52.16799 14.07976 39293 ft 400 kts
2026-04-26 09:13 52.22275 14.09593 39285 ft 399 kts
2026-04-26 09:14 52.27739 14.09745 39276 ft 389 kts 348°
2026-04-26 09:14 52.33222 14.09435 39300 ft 405 kts
2026-04-26 09:15 52.38815 14.11300 39291 ft 418 kts
2026-04-26 09:15 52.44479 14.13490 39289 ft 419 kts
2026-04-26 09:16 52.50151 14.15661 39293 ft 419 kts
2026-04-26 09:16 52.55826 14.17804 39285 ft 418 kts
2026-04-26 09:17 52.61491 14.19932 39280 ft 416 kts
2026-04-26 09:17 52.67125 14.22058 39269 ft 415 kts
2026-04-26 09:18 52.72738 14.24182 39285 ft 413 kts
2026-04-26 09:18 52.78331 14.26299 39289 ft 411 kts
2026-04-26 09:19 52.83904 14.28415 39278 ft 410 kts
2026-04-26 09:19 52.89275 14.31810 39296 ft 424 kts 25°
2026-04-26 09:20 52.93746 14.38467 39296 ft 444 kts 43°
2026-04-26 09:20 52.97528 14.46624 39287 ft 447 kts 45°
2026-04-26 09:21 53.01268 14.54870 39276 ft 446 kts 44°
2026-04-26 09:21 53.05027 14.63055 39269 ft 445 kts 44°
2026-04-26 09:22 53.08801 14.71196 39269 ft 444 kts 44°
2026-04-26 09:22 53.12575 14.79334 39266 ft 444 kts 44°
2026-04-26 09:23 53.16341 14.87491 39270 ft 444 kts 44°
2026-04-26 09:23 53.20097 14.95665 39265 ft 444 kts 44°
2026-04-26 09:24 53.23846 15.03838 39267 ft 444 kts 44°
2026-04-26 09:24 53.27583 15.12033 39274 ft 443 kts 44°
2026-04-26 09:25 53.31312 15.20224 39262 ft 444 kts 44°
2026-04-26 09:25 53.35046 15.28433 39268 ft 442 kts 41°
2026-04-26 09:25 53.37233 15.31840 39266 ft 420 kts 23°
2026-04-26 09:26 53.39812 15.33856 39262 ft 403 kts
2026-04-26 09:26 53.42534 15.34622 39275 ft 394 kts 357°
2026-04-26 09:26 53.45254 15.34442 39267 ft 391 kts 347°
2026-04-26 09:27 53.50467 15.32021 39263 ft 391 kts 346°
2026-04-26 09:27 53.55828 15.30374 39271 ft 392 kts 346°
2026-04-26 09:28 53.61169 15.28592 39258 ft 391 kts 345°
2026-04-26 09:28 53.66498 15.26727 39273 ft 391 kts 345°
2026-04-26 09:29 53.71823 15.24857 39293 ft 391 kts 345°
2026-04-26 09:29 53.77112 15.23004 39278 ft 391 kts 345°
2026-04-26 09:30 53.82467 15.21128 39285 ft 390 kts 345°
2026-04-26 09:30 53.87742 15.19276 39292 ft 390 kts 345°
2026-04-26 09:31 53.93063 15.17408 39275 ft 390 kts 345°
2026-04-26 09:31 53.98380 15.15533 39257 ft 390 kts 345°
2026-04-26 09:32 54.03688 15.13658 39259 ft 390 kts 345°
2026-04-26 09:32 54.08996 15.11773 39256 ft 389 kts 345°
2026-04-26 09:33 54.14297 15.09888 39256 ft 388 kts 345°
2026-04-26 09:33 54.19579 15.08007 39254 ft 387 kts 345°
2026-04-26 09:34 54.24846 15.06120 39257 ft 386 kts 345°
2026-04-26 09:34 54.30105 15.04218 39268 ft 386 kts 344°
2026-04-26 09:35 54.35362 15.02290 39290 ft 387 kts 344°
2026-04-26 09:35 54.40621 15.00358 39286 ft 387 kts 344°
2026-04-26 09:36 54.45889 14.98443 39274 ft 387 kts 345°
2026-04-26 09:36 54.50276 14.96865 39284 ft 387 kts 345°
2026-04-26 09:37 54.55555 14.94953 39272 ft 388 kts 344°
2026-04-26 09:37 54.60839 14.93035 39279 ft 388 kts 345°
2026-04-26 09:38 54.66212 14.92161 39291 ft 400 kts
2026-04-26 09:38 54.71461 14.95864 39259 ft 423 kts 27°
2026-04-26 09:39 54.75975 15.02638 39260 ft 432 kts 34°
2026-04-26 09:39 54.80336 15.09808 39266 ft 433 kts 34°
2026-04-26 09:40 54.84706 15.16958 39267 ft 431 kts 34°
2026-04-26 09:40 54.89088 15.24040 39266 ft 430 kts 34°
2026-04-26 09:41 54.93475 15.31108 39262 ft 430 kts 34°
2026-04-26 09:41 54.97862 15.38180 39268 ft 430 kts 34°
2026-04-26 09:42 55.02245 15.45266 39271 ft 429 kts 34°
2026-04-26 09:42 55.06617 15.52357 39270 ft 429 kts 34°
2026-04-26 09:43 55.10983 15.59469 39258 ft 429 kts 34°
2026-04-26 09:43 55.15353 15.66610 39243 ft 430 kts 34°
2026-04-26 09:44 55.19720 15.73764 39238 ft 430 kts 34°
2026-04-26 09:44 55.24083 15.80934 39229 ft 430 kts 34°
2026-04-26 09:45 55.28443 15.88123 39233 ft 430 kts 34°
2026-04-26 09:45 55.32793 15.95313 39220 ft 430 kts 34°
2026-04-26 09:46 55.37140 16.02521 39219 ft 429 kts 34°
2026-04-26 09:46 55.41495 16.09748 39208 ft 431 kts 34°
2026-04-26 09:47 55.45834 16.17019 39218 ft 431 kts 35°
2026-04-26 09:47 55.50183 16.24317 39214 ft 431 kts 35°
2026-04-26 09:48 55.54541 16.31612 39205 ft 431 kts 35°
2026-04-26 09:48 55.58888 16.38948 39187 ft 433 kts 35°
2026-04-26 09:49 55.63231 16.46321 39182 ft 432 kts 35°
2026-04-26 09:49 55.67570 16.53679 39187 ft 432 kts 35°
2026-04-26 09:50 55.71907 16.61035 39181 ft 431 kts 35°
2026-04-26 09:50 55.76225 16.68410 39179 ft 431 kts 35°
2026-04-26 09:51 55.80534 16.75784 39178 ft 429 kts 35°
2026-04-26 09:51 55.84831 16.83181 39174 ft 430 kts 36°
2026-04-26 09:52 55.89129 16.90601 39175 ft 431 kts 36°
2026-04-26 09:52 55.95564 17.01749 39165 ft 433 kts 36°
2026-04-26 09:53 55.99884 17.09246 39165 ft 433 kts 36°
2026-04-26 09:53 56.04215 17.16790 39177 ft 435 kts 37°
2026-04-26 09:54 56.08549 17.24346 39172 ft 435 kts 37°
2026-04-26 09:54 56.12875 17.31927 39155 ft 435 kts 37°
2026-04-26 09:55 56.17177 17.39556 39155 ft 435 kts 37°
2026-04-26 09:55 56.21475 17.47197 39157 ft 434 kts 38°
2026-04-26 09:56 56.25776 17.54820 39157 ft 435 kts 37°
2026-04-26 09:56 56.30084 17.62458 39167 ft 436 kts 38°
2026-04-26 09:57 56.34398 17.70161 39150 ft 436 kts 38°
2026-04-26 09:57 56.38701 17.77866 39146 ft 436 kts 38°
2026-04-26 09:58 56.42995 17.85570 39143 ft 434 kts 37°
2026-04-26 09:58 56.47277 17.93257 39160 ft 434 kts 38°
2026-04-26 09:59 56.51537 18.00995 39153 ft 433 kts 38°
2026-04-26 09:59 56.55798 18.08745 39145 ft 434 kts 38°
2026-04-26 10:00 56.60057 18.16515 39157 ft 434 kts 38°
2026-04-26 10:00 56.64321 18.24337 39143 ft 436 kts 39°
2026-04-26 10:01 56.68605 18.32167 39141 ft 438 kts 39°
2026-04-26 10:01 56.72873 18.40022 39129 ft 440 kts 39°
2026-04-26 10:02 56.77186 18.47990 39111 ft 442 kts 39°
2026-04-26 10:02 56.81508 18.56000 39090 ft 444 kts 39°
2026-04-26 10:03 56.85830 18.64037 39075 ft 443 kts 39°
2026-04-26 10:03 56.90141 18.72091 39084 ft 442 kts 39°
2026-04-26 10:04 56.94440 18.80150 39081 ft 442 kts 39°
2026-04-26 10:04 56.98741 18.88202 39086 ft 442 kts 39°
2026-04-26 10:05 57.03029 18.96295 39083 ft 443 kts 40°
2026-04-26 10:05 57.07316 19.04434 39071 ft 444 kts 40°
2026-04-26 10:06 57.11633 19.12587 39072 ft 446 kts 40°
2026-04-26 10:06 57.15933 19.20817 39060 ft 446 kts 40°
2026-04-26 10:07 57.20225 19.29057 39067 ft 445 kts 40°
2026-04-26 10:07 57.24520 19.37293 39059 ft 446 kts 40°
2026-04-26 10:08 57.28812 19.45575 39062 ft 447 kts 40°
2026-04-26 10:08 57.33105 19.53885 39057 ft 447 kts 40°
2026-04-26 10:09 57.37400 19.62192 39058 ft 447 kts 40°
2026-04-26 10:09 57.41686 19.70564 39069 ft 447 kts 41°
2026-04-26 10:10 57.45970 19.78943 39074 ft 448 kts 41°
2026-04-26 10:10 57.50258 19.87342 39080 ft 448 kts 41°
2026-04-26 10:11 57.54551 19.95799 39049 ft 450 kts 41°
2026-04-26 10:11 57.58837 20.04273 39044 ft 450 kts 41°
2026-04-26 10:12 57.63128 20.12795 39030 ft 451 kts 41°
2026-04-26 10:12 57.67432 20.21353 39009 ft 452 kts 41°
2026-04-26 10:13 57.71586 20.30051 39001 ft 453 kts 44°
2026-04-26 10:13 57.75666 20.39040 38995 ft 454 kts 44°
2026-04-26 10:14 57.79760 20.48074 38996 ft 454 kts 45°
2026-04-26 10:14 57.83862 20.57031 38974 ft 453 kts 44°
2026-04-26 10:15 57.87956 20.66013 38976 ft 453 kts 44°
2026-04-26 10:15 57.92044 20.75064 38976 ft 455 kts 45°
2026-04-26 10:16 57.96130 20.84121 38962 ft 454 kts 45°
2026-04-26 10:16 58.00222 20.93200 38966 ft 454 kts 45°
2026-04-26 10:17 58.04318 21.02323 38957 ft 455 kts 45°
2026-04-26 10:17 58.08405 21.11460 38947 ft 455 kts 45°
2026-04-26 10:18 58.12493 21.20598 38942 ft 455 kts 46°
2026-04-26 10:18 58.16565 21.29794 38931 ft 456 kts 46°
2026-04-26 10:19 58.20639 21.39028 38924 ft 457 kts 46°
2026-04-26 10:19 58.24713 21.48293 38919 ft 457 kts 46°
2026-04-26 10:20 58.28124 21.56080 38935 ft 457 kts 46°
2026-04-26 10:20 58.32853 21.66896 38899 ft 458 kts 46°
2026-04-26 10:21 58.36920 21.76243 38889 ft 459 kts 46°
2026-04-26 10:21 58.40990 21.85640 38903 ft 459 kts 46°
2026-04-26 10:22 58.45049 21.95054 38888 ft 459 kts 46°
2026-04-26 10:22 58.48447 22.02958 38882 ft 460 kts 47°
2026-04-26 10:23 58.52493 22.12418 38875 ft 459 kts 47°
2026-04-26 10:23 58.56535 22.21893 38880 ft 459 kts 47°
2026-04-26 10:24 58.60579 22.31397 38878 ft 460 kts 47°
2026-04-26 10:24 58.64626 22.40947 38867 ft 462 kts 47°
2026-04-26 10:25 58.68661 22.50539 38856 ft 461 kts 47°
2026-04-26 10:25 58.72689 22.60137 38851 ft 461 kts 48°
2026-04-26 10:26 58.76705 22.69751 38834 ft 461 kts 48°
2026-04-26 10:26 58.80724 22.79403 38835 ft 462 kts 48°
2026-04-26 10:27 58.84742 22.89094 38834 ft 463 kts 48°
2026-04-26 10:27 58.88756 22.98814 38822 ft 463 kts 48°
2026-04-26 10:28 58.92766 23.08572 38845 ft 463 kts 49°
2026-04-26 10:28 58.96772 23.18361 38856 ft 463 kts 49°
2026-04-26 10:29 59.00773 23.28171 38847 ft 464 kts 49°
2026-04-26 10:29 59.04765 23.38048 38835 ft 466 kts 49°
2026-04-26 10:30 59.08765 23.47948 38823 ft 465 kts 49°
2026-04-26 10:30 59.12763 23.57849 38808 ft 465 kts 49°
2026-04-26 10:31 59.16723 23.67704 38794 ft 465 kts 49°
2026-04-26 10:31 59.20703 23.77678 38784 ft 466 kts 49°
2026-04-26 10:32 59.24676 23.87669 38759 ft 466 kts 49°
2026-04-26 10:32 59.28634 23.97672 38751 ft 465 kts 50°
2026-04-26 10:33 59.32589 24.07698 38745 ft 465 kts 50°
2026-04-26 10:33 59.36535 24.17740 38749 ft 465 kts 50°
2026-04-26 10:34 59.40470 24.27820 38753 ft 466 kts 50°
2026-04-26 10:34 59.44394 24.37927 38747 ft 465 kts 50°
2026-04-26 10:35 59.48318 24.48044 38749 ft 465 kts 50°
2026-04-26 10:35 59.52241 24.58202 38748 ft 466 kts 50°
2026-04-26 10:36 59.56155 24.68397 38751 ft 467 kts 51°
2026-04-26 10:36 59.60070 24.78634 38747 ft 467 kts 51°
2026-04-26 10:37 59.63976 24.88892 38744 ft 468 kts 51°
2026-04-26 10:37 59.67880 24.99192 38741 ft 468 kts 51°
2026-04-26 10:38 59.71776 25.09515 38741 ft 468 kts 51°
2026-04-26 10:38 59.75664 25.19863 38730 ft 468 kts 51°
2026-04-26 10:39 59.79543 25.30235 38732 ft 468 kts 52°
2026-04-26 10:39 59.83426 25.40655 38727 ft 469 kts 52°
2026-04-26 10:40 59.87305 25.51115 38723 ft 470 kts 52°
2026-04-26 10:40 59.91174 25.61598 38721 ft 469 kts 52°
2026-04-26 10:41 59.95033 25.72096 38707 ft 470 kts 52°
2026-04-26 10:41 59.98888 25.82633 38713 ft 470 kts 52°
2026-04-26 10:42 60.02730 25.93185 38708 ft 469 kts 52°
2026-04-26 10:42 60.06560 26.03746 38709 ft 469 kts 52°
2026-04-26 10:43 60.10384 26.14344 38699 ft 469 kts 53°
2026-04-26 10:43 60.14195 26.24954 38700 ft 469 kts 52°
2026-04-26 10:44 60.18007 26.35599 38688 ft 470 kts 53°
2026-04-26 10:44 60.21814 26.46290 38677 ft 469 kts 53°
2026-04-26 10:45 60.25606 26.56994 38674 ft 470 kts 53°
2026-04-26 10:45 60.29391 26.67739 38672 ft 470 kts 53°
2026-04-26 10:46 60.33172 26.78506 38646 ft 471 kts 53°
2026-04-26 10:46 60.36950 26.89308 38636 ft 470 kts 53°
2026-04-26 10:47 60.40713 27.00131 38634 ft 471 kts 53°
2026-04-26 10:47 60.44473 27.10987 38610 ft 472 kts 53°
2026-04-26 10:48 60.48229 27.21887 38612 ft 471 kts 53°
2026-04-26 10:48 60.51980 27.32824 38602 ft 473 kts 54°
2026-04-26 10:49 60.55725 27.43787 38596 ft 472 kts 54°
2026-04-26 10:49 60.59464 27.54767 38583 ft 472 kts 54°
2026-04-26 10:50 60.62558 27.63916 38571 ft 472 kts 54°
2026-04-26 10:50 60.65515 27.70409 38574 ft 467 kts 31°
2026-04-26 10:50 60.68447 27.73129 38577 ft 463 kts 12°
2026-04-26 10:51 60.71623 27.74031 38584 ft 461 kts 360°
2026-04-26 10:51 60.77814 27.71514 38592 ft 459 kts 339°
2026-04-26 10:52 60.83776 27.66742 38574 ft 461 kts 337°
2026-04-26 10:52 60.89739 27.61827 38566 ft 461 kts 338°
2026-04-26 10:53 60.95713 27.57010 38580 ft 462 kts 338°
2026-04-26 10:53 61.01712 27.52223 38583 ft 462 kts 338°
2026-04-26 10:54 61.10715 27.45047 38580 ft 462 kts 338°
2026-04-26 10:54 61.16717 27.40242 38592 ft 462 kts 338°
2026-04-26 10:55 61.22720 27.35400 38590 ft 463 kts 338°
2026-04-26 10:55 61.27704 27.31368 38593 ft 462 kts 338°
2026-04-26 10:56 61.34705 27.25697 38607 ft 461 kts 338°
2026-04-26 10:56 61.40677 27.20824 38613 ft 461 kts 338°
2026-04-26 10:57 61.46609 27.15962 38621 ft 461 kts 338°
2026-04-26 10:57 61.52581 27.11061 38627 ft 461 kts 338°
2026-04-26 10:58 61.58549 27.06133 38646 ft 461 kts 338°
2026-04-26 10:58 61.64508 27.01186 38665 ft 460 kts 338°
2026-04-26 10:59 61.70458 26.96228 38665 ft 460 kts 338°
2026-04-26 10:59 61.76408 26.91267 38668 ft 460 kts 338°
2026-04-26 11:00 61.82350 26.86261 38666 ft 460 kts 338°
2026-04-26 11:00 61.88297 26.81237 38672 ft 460 kts 338°
2026-04-26 11:01 61.94238 26.76203 38684 ft 459 kts 338°
2026-04-26 11:01 62.00168 26.71166 38687 ft 460 kts 338°
2026-04-26 11:02 62.06103 26.66097 38691 ft 460 kts 338°
2026-04-26 11:02 62.12041 26.61007 38702 ft 459 kts 338°
2026-04-26 11:03 62.17970 26.55902 38715 ft 459 kts 338°
2026-04-26 11:03 62.23895 26.50783 38710 ft 459 kts 338°
2026-04-26 11:04 62.29815 26.45638 38724 ft 459 kts 338°
2026-04-26 11:04 62.35734 26.40480 38727 ft 459 kts 338°
2026-04-26 11:05 62.41658 26.35301 38730 ft 460 kts 338°
2026-04-26 11:05 62.47545 26.30122 38738 ft 459 kts 338°
2026-04-26 11:06 62.52503 26.25749 38733 ft 460 kts 338°
2026-04-26 11:06 62.59393 26.19653 38727 ft 460 kts 338°
2026-04-26 11:07 62.65325 26.14367 38735 ft 461 kts 337°
2026-04-26 11:07 62.71258 26.09043 38727 ft 461 kts 337°
2026-04-26 11:08 62.77187 26.03715 38732 ft 461 kts 337°
2026-04-26 11:08 62.82113 25.99276 38729 ft 460 kts 337°
2026-04-26 11:09 62.88021 25.93933 38722 ft 459 kts 337°
2026-04-26 11:09 62.93915 25.88567 38718 ft 458 kts 337°
2026-04-26 11:10 62.99788 25.83195 38724 ft 457 kts 337°
2026-04-26 11:10 63.05662 25.77806 38724 ft 457 kts 337°
2026-04-26 11:11 63.11530 25.72404 38718 ft 457 kts 337°
2026-04-26 11:11 63.17401 25.66963 38724 ft 457 kts 337°
2026-04-26 11:12 63.23272 25.61503 38744 ft 457 kts 337°
2026-04-26 11:12 63.29139 25.56023 38750 ft 458 kts 337°
2026-04-26 11:13 63.35002 25.50518 38745 ft 457 kts 337°
2026-04-26 11:13 63.40864 25.45000 38752 ft 457 kts 337°
2026-04-26 11:14 63.46735 25.39442 38750 ft 458 kts 337°
2026-04-26 11:14 63.52602 25.33866 38752 ft 458 kts 336°
2026-04-26 11:15 63.58456 25.28273 38792 ft 457 kts 336°
2026-04-26 11:15 63.64311 25.22656 38809 ft 458 kts 336°
2026-04-26 11:16 63.70169 25.17012 38808 ft 458 kts 336°
2026-04-26 11:16 63.76112 25.11809 38800 ft 458 kts 346°
2026-04-26 11:17 63.82425 25.10016 38795 ft 459 kts 359°
2026-04-26 11:17 63.88800 25.10353 38815 ft 458 kts
2026-04-26 11:18 63.95173 25.10790 38823 ft 458 kts
2026-04-26 11:18 64.01545 25.11116 38824 ft 458 kts
2026-04-26 11:19 64.07920 25.11386 38826 ft 458 kts
2026-04-26 11:19 64.14254 25.11649 38809 ft 458 kts
2026-04-26 11:20 64.19597 25.11874 38817 ft 458 kts
2026-04-26 11:20 64.26996 25.12190 38813 ft 457 kts
2026-04-26 11:21 64.33359 25.12453 38814 ft 458 kts
2026-04-26 11:21 64.39726 25.12746 38818 ft 458 kts
2026-04-26 11:22 64.46090 25.12974 38817 ft 457 kts 359°
2026-04-26 11:22 64.52453 25.12969 38806 ft 458 kts 359°
2026-04-26 11:23 64.58824 25.12917 38806 ft 458 kts 359°
2026-04-26 11:23 64.65192 25.12895 38803 ft 458 kts 359°
2026-04-26 11:24 64.71563 25.12893 38807 ft 458 kts 359°
2026-04-26 11:24 64.77930 25.12894 38808 ft 457 kts 359°
2026-04-26 11:25 64.84291 25.12899 38805 ft 457 kts 359°
2026-04-26 11:25 64.90652 25.12901 38806 ft 457 kts 359°
2026-04-26 11:26 64.97011 25.12899 38804 ft 457 kts 359°
2026-04-26 11:26 65.03372 25.12898 38809 ft 457 kts 359°
2026-04-26 11:27 65.09740 25.12901 38804 ft 458 kts 359°
2026-04-26 11:27 65.16110 25.12897 38806 ft 458 kts 359°
2026-04-26 11:28 65.22480 25.12872 38803 ft 458 kts 359°
2026-04-26 11:28 65.28802 25.12845 38814 ft 457 kts 359°
2026-04-26 11:29 65.35160 25.12819 38813 ft 457 kts 359°
2026-04-26 11:29 65.41516 25.12787 38812 ft 457 kts 359°
2026-04-26 11:30 65.46838 25.12759 38817 ft 457 kts 359°
2026-04-26 11:30 65.54228 25.12722 38647 ft 458 kts 359°
2026-04-26 11:31 65.57409 25.12707 38389 ft 455 kts 359°
2026-04-26 11:31 65.60563 25.12689 38146 ft 452 kts 359°
2026-04-26 11:31 65.63701 25.12671 37898 ft 451 kts 359°
2026-04-26 11:31 65.66838 25.12651 37654 ft 451 kts 359°
2026-04-26 11:32 65.69972 25.12637 37410 ft 450 kts 359°
2026-04-26 11:32 65.73099 25.12620 37157 ft 449 kts 359°
2026-04-26 11:32 65.76226 25.12597 36751 ft 451 kts 359°
2026-04-26 11:32 65.79376 25.12578 36262 ft 454 kts 359°
2026-04-26 11:33 65.82551 25.12560 35716 ft 457 kts 359°
2026-04-26 11:33 65.85740 25.12542 35168 ft 460 kts 359°
2026-04-26 11:33 65.88944 25.12525 34627 ft 461 kts 359°
2026-04-26 11:33 65.92153 25.12507 34084 ft 461 kts 359°
2026-04-26 11:34 65.95355 25.12483 33543 ft 460 kts 359°
2026-04-26 11:34 65.98542 25.12466 32996 ft 457 kts 359°
2026-04-26 11:34 66.01724 25.12460 32445 ft 457 kts 359°
2026-04-26 11:34 66.04895 25.12456 31893 ft 455 kts 359°
2026-04-26 11:35 66.08052 25.12424 31347 ft 453 kts 359°
2026-04-26 11:35 66.11197 25.12372 30808 ft 451 kts 358°
2026-04-26 11:35 66.14322 25.12025 30256 ft 449 kts 356°
2026-04-26 11:35 66.16387 25.11674 29893 ft 449 kts 355°
2026-04-26 11:36 66.20576 25.10856 29173 ft 455 kts 355°
2026-04-26 11:36 66.23742 25.10229 28630 ft 457 kts 355°
2026-04-26 11:36 66.26912 25.09631 28078 ft 456 kts 355°
2026-04-26 11:36 66.30050 25.09075 27529 ft 446 kts 355°
2026-04-26 11:37 66.33066 25.08554 26973 ft 435 kts 355°
2026-04-26 11:37 66.36044 25.08041 26419 ft 423 kts 355°
2026-04-26 11:37 66.38946 25.07538 25866 ft 413 kts 355°
2026-04-26 11:37 66.41778 25.07043 25312 ft 404 kts 355°
2026-04-26 11:38 66.44555 25.06548 24763 ft 397 kts 355°
2026-04-26 11:38 66.47277 25.06056 24211 ft 389 kts 355°
2026-04-26 11:38 66.49949 25.05573 23665 ft 381 kts 355°
2026-04-26 11:38 66.52575 25.05099 23114 ft 375 kts 355°
2026-04-26 11:39 66.55159 25.04635 22565 ft 370 kts 356°
2026-04-26 11:39 66.57701 25.04183 22019 ft 364 kts 356°
2026-04-26 11:39 66.60212 25.03730 21468 ft 360 kts 356°
2026-04-26 11:39 66.62694 25.03275 20929 ft 355 kts 356°
2026-04-26 11:40 66.65145 25.02829 20366 ft 351 kts 356°
2026-04-26 11:40 66.67571 25.02387 19823 ft 348 kts 356°
2026-04-26 11:40 66.69974 25.01955 19274 ft 345 kts 356°
2026-04-26 11:40 66.72353 25.01524 18730 ft 343 kts 356°
2026-04-26 11:41 66.74720 25.01093 18178 ft 340 kts 356°
2026-04-26 11:42 66.90740 24.98147 14335 ft 321 kts 356°
2026-04-26 11:43 66.92958 24.97739 13786 ft 318 kts 356°
2026-04-26 11:43 66.95161 24.97333 13239 ft 316 kts 356°
2026-04-26 11:43 66.97345 24.96930 12697 ft 314 kts 356°
2026-04-26 11:43 66.99489 24.96532 12388 ft 304 kts 356°
2026-04-26 11:44 67.01563 24.96144 12143 ft 294 kts 356°
2026-04-26 11:44 67.03573 24.95770 11902 ft 284 kts 356°
2026-04-26 11:44 67.05519 24.95407 11656 ft 278 kts 356°
2026-04-26 11:44 67.07442 24.95047 11418 ft 277 kts 356°
2026-04-26 11:45 67.09358 24.94690 11179 ft 276 kts 356°
2026-04-26 11:45 67.11268 24.94333 10932 ft 274 kts 356°
2026-04-26 11:45 67.13140 24.93978 10704 ft 266 kts 356°
2026-04-26 11:45 67.14974 24.93632 10481 ft 262 kts 356°
2026-04-26 11:46 67.16779 24.93290 10368 ft 259 kts 356°
2026-04-26 11:46 67.18574 24.92951 10241 ft 258 kts 356°
2026-04-26 11:46 67.20350 24.92619 10110 ft 253 kts 356°
2026-04-26 11:46 67.22074 24.92292 9972 ft 244 kts 356°
2026-04-26 11:47 67.23734 24.91979 9852 ft 234 kts 356°
2026-04-26 11:47 67.25326 24.91693 9827 ft 227 kts 358°
2026-04-26 11:47 67.26947 24.91814 9452 ft 242 kts
2026-04-26 11:47 67.28622 24.92166 9126 ft 241 kts
2026-04-26 11:48 67.30302 24.92539 8767 ft 243 kts
2026-04-26 11:48 67.31984 24.92908 8403 ft 242 kts
2026-04-26 11:48 67.33652 24.93261 8040 ft 238 kts
2026-04-26 11:48 67.35291 24.93602 7705 ft 234 kts
2026-04-26 11:49 67.36903 24.93925 7361 ft 230 kts
2026-04-26 11:49 67.38484 24.94237 7034 ft 227 kts
2026-04-26 11:49 67.40049 24.94537 6698 ft 225 kts
2026-04-26 11:49 67.41567 24.94835 6380 ft 218 kts
2026-04-26 11:50 67.43038 24.95124 6082 ft 206 kts
2026-04-26 11:50 67.44434 24.95393 5791 ft 192 kts
2026-04-26 11:50 67.45733 24.95658 5517 ft 182 kts
2026-04-26 11:50 67.46960 24.95895 5366 ft 170 kts
2026-04-26 11:51 67.48138 24.96126 5182 ft 173 kts
2026-04-26 11:51 67.49355 24.96364 4975 ft 177 kts
2026-04-26 11:51 67.50600 24.96608 4705 ft 174 kts
2026-04-26 11:51 67.51748 24.96504 4553 ft 159 kts 351°
2026-04-26 11:52 67.52817 24.95920 4316 ft 153 kts 348°
2026-04-26 11:52 67.53489 24.95506 4165 ft 147 kts 348°
2026-04-26 11:52 67.54762 24.94687 3878 ft 134 kts 347°
2026-04-26 11:52 67.55658 24.94102 3708 ft 136 kts 347°
2026-04-26 11:53 67.56579 24.93507 3477 ft 135 kts 346°
2026-04-26 11:53 67.57458 24.92897 3293 ft 130 kts 347°
2026-04-26 11:53 67.58334 24.92352 3076 ft 130 kts 348°
2026-04-26 11:54 67.60076 24.91229 2699 ft 128 kts 346°
2026-04-26 11:54 67.60947 24.90659 2513 ft 130 kts 346°
2026-04-26 11:54 67.61825 24.90086 2318 ft 131 kts 345°
2026-04-26 11:54 67.62702 24.89513 2115 ft 129 kts 347°
2026-04-26 11:55 67.63575 24.88932 1918 ft 130 kts 344°
2026-04-26 11:55 67.64468 24.88332 1750 ft 133 kts 346°
2026-04-26 11:55 67.65367 24.87754 1554 ft 133 kts 346°
2026-04-26 11:55 67.66266 24.87163 1349 ft 134 kts 345°
2026-04-26 11:56 67.67174 24.86566 1110 ft 134 kts 346°
2026-04-26 11:56 67.68074 24.86006 902 ft 132 kts 345°
2026-04-26 11:56 67.68965 24.85424 692 ft 131 kts 346°
2026-04-26 11:56 67.69547 24.85044 638 ft 121 kts 346°
2026-04-26 11:57 67.70161 24.84646 640 ft 59 kts 346°
2026-04-26 11:57 67.70378 24.84504 638 ft 21 kts 346°
2026-04-26 11:57 67.70515 24.84417 638 ft 19 kts 346°
2026-04-26 11:57 67.70635 24.84342 639 ft 17 kts 356°
2026-04-26 11:58 67.70729 24.84499 640 ft 17 kts 69°
2026-04-26 11:58 67.70701 24.84744 640 ft 16 kts 161°
2026-04-26 11:58 67.70597 24.84812 640 ft 15 kts 166°
2026-04-26 11:58 67.70497 24.84876 638 ft 14 kts 166°
2026-04-26 11:59 67.70401 24.84938 638 ft 14 kts 166°
2026-04-26 11:59 67.70310 24.84997 646 ft 13 kts 166°
2026-04-26 11:59 67.70223 24.85054 640 ft 13 kts 166°
2026-04-26 11:59 67.70138 24.85110 640 ft 12 kts 166°
2026-04-26 12:00 67.70055 24.85165 640 ft 12 kts 166°
2026-04-26 12:00 67.69974 24.85218 639 ft 12 kts 166°
2026-04-26 12:00 67.69894 24.85267 638 ft 12 kts 167°
2026-04-26 12:00 67.69818 24.85324 641 ft 11 kts 160°
2026-04-26 12:01 67.69744 24.85379 643 ft 11 kts 166°
2026-04-26 12:01 67.69706 24.85444 636 ft 6 kts 92°
2026-04-26 12:01 67.69715 24.85514 636 ft 4 kts 40°
2026-04-26 12:01 67.69737 24.85487 636 ft 4 kts 303°
2026-04-26 12:02 67.69724 24.85416 637 ft 6 kts 204°
2026-04-26 12:02 67.69670 24.85430 639 ft 10 kts 168°
2026-04-26 12:02 67.69623 24.85514 637 ft 5 kts 91°
2026-04-26 12:02 67.69631 24.85604 637 ft 5 kts 75°
2026-04-26 12:03 67.69635 24.85647 637 ft 1 kts 76°
2026-04-26 12:03 67.69635 24.85648 637 ft 0 kts 76°